Regional Weather Roundup
Issued by NWS

Home | Current Version | Previous Version | Text Only | Print | Product List | Glossary Off
Versions: 1 2 3 4 5 6 7 8 9 10 11 12 13 14 15 16 17 18 19 20 21 22 23 24 25 26 27 28 29 30 31 32 33 34 35 36 37 38 39 40 41 42 43 44 45 46 47 48 49 50

000
ASUS43 KLSX 172259
RWRMO

WEATHER SUMMARY FOR MISSOURI
NATIONAL WEATHER SERVICE SPRINGFIELD MO
500 PM CST WED DEC 17 2014

NOTE: "FAIR" INDICATES FEW OR NO CLOUDS BELOW 12,000 FEET WITH NO
       SIGNIFICANT WEATHER AND/OR OBSTRUCTIONS TO VISIBILITY.
       CURRENT SKY AND/OR WEATHER CONDITIONS ARE NOT AVAILABLE FOR
       CHILLICOTHE AND FARMINGTON.

MOZ001>031-035>038-043-044-053-054-180000-
...NORTHERN AND WESTERN MISSOURI...

CITY           SKY/WX    TMP DP  RH WIND       PRES   REMARKS
KANSAS CTY INT CLOUDY    29  20  69 NE7       30.25S WCI  22
KANSAS C DTWN  CLOUDY    31  20  63 NE5       30.26R WCI  26
LEE`S SUMMIT   CLOUDY    30  20  66 E6        30.25S WCI  24
ST JOSEPH      CLOUDY    29  20  69 E5        30.28S WCI  24
CHILLICOTHE      N/A     30  20  66 NE5       30.29S WCI  25
KIRKSVILLE     CLEAR     26  21  81 NE7       30.28R WCI  18

$$
MOZ066>068-077>081-088>096-101>105-180000-
...SOUTHWEST MISSOURI...

CITY           SKY/WX    TMP DP  RH WIND       PRES   REMARKS
SPRINGFIELD    CLOUDY    34  29  82 E5        30.21F WCI  30
JOPLIN         FRZ RAIN  32  30  92 E6        30.19F FOG     WCI  26

$$
MOZ032>034-039>042-045>050-055>058-069>072-180000-
...CENTRAL MISSOURI...

CITY           SKY/WX    TMP DP  RH WIND       PRES   REMARKS
COLUMBIA       MOCLDY    33  24  69 CALM      30.26S
JEFFERSON CITY CLOUDY    35  21  56 NE5       30.28R
ROLLA          CLOUDY    34  22  61 CALM      30.23S
SEDALIA        CLOUDY    32  23  69 E6        30.26S WCI  26
OSAGE BEACH    CLOUDY    34  21  60 E5        30.24F WCI  30

$$
MOZ051-052-059>065-180000-
...EAST CENTRAL MISSOURI...

CITY           SKY/WX    TMP DP  RH WIND       PRES   REMARKS
ST LOUIS INTL  MOCLDY    36  24  62 NE6       30.28F
SPIRIT OF STL  MOCLDY   N/A N/A N/A NE5       30.28S
ST CHARLES     PTCLDY    34  25  69 NE7       30.29F WCI  28

$$
MOZ072>076-082>087-097>100-106>115-180000-
...SOUTH CENTRAL AND SOUTHEAST MISSOURI...

CITY           SKY/WX    TMP DP  RH WIND       PRES   REMARKS
CAPE GIRARDEAU CLOUDY    38  29  70 CALM      30.29S
FARMINGTON     CLOUDY    37  25  60 CALM      30.27R
POPLAR BLUFF   MOCLDY    38  27  64 CALM      30.27F
WEST PLAINS    CLOUDY    39  25  57 CALM      30.23F

$$



USA.gov is the U.S. government's official web portal to all federal, state and local government web resources and services.